Regional Weather Roundup
Issued by NWS

Home | Current Version | Previous Version | Graphics & Text | Print | Product List | Glossary On
Versions: 1 2 3 4 5 6 7 8 9 10 11 12 13 14 15 16 17 18 19 20 21 22 23 24 25 26 27 28 29 30 31 32 33 34 35 36 37 38 39 40 41 42 43 44 45 46 47 48 49 50
282
ASUS43 KMKX 071721
RWRWI

WISCONSIN REGIONAL WEATHER ROUNDUP
NATIONAL WEATHER SERVICE MILWAUKEE/SULLIVAN WI
1100 AM CST SUN FEB 07 2016

NOTE: "FAIR" INDICATES FEW OR NO CLOUDS BELOW 12,000 FEET WITH NO
SIGNIFICANT WEATHER AND/OR OBSTRUCTIONS TO VISIBILITY.

WIZ001-002-006>008-014>016-023>028-071800-
NORTHWEST WISCONSIN

CITY           SKY/WX    TMP DP  RH WIND       PRES   REMARKS
SUPERIOR ARPT  CLOUDY    37  33  87 W9        29.48S WCI  30
ASHLAND        CLOUDY    37  32  82 SW8       29.48S WCI  31
HAYWARD        LGT RAIN  35  30  82 SW10      29.51R WCI  27
SIREN          CLOUDY    37  29  73 W10G17    29.55R WCI  30
CUMBERLAND     CLOUDY    36  28  75 W20G28    29.55R WCI  25
RICE LAKE      CLOUDY    38  29  71 W15G24    29.57S WCI  29
CHETEK         CLOUDY    38  29  71 W10G23    29.57R WCI  31
LADYSMITH      CLOUDY    35  31  85 SW10      29.56R WCI  27
EAU CLAIRE     CLOUDY    38  27  64 W12       29.60R WCI  30
MENOMONIE      CLOUDY    40  28  61 W13       29.61R WCI  33
NEW RICHMOND   CLOUDY    39  27  61 W18       29.59S WCI  30
OSCEOLA        CLOUDY    40  27  61 W15G24    29.62R WCI  31
$$

WIZ003>005-009-010-017-018-071800-
NORTH CENTRAL WISCONSIN

CITY           SKY/WX    TMP DP  RH WIND       PRES   REMARKS
MANITOWISH WTR MIX PCPN  31  31  99 SW8       29.49S WCI  24
ARBOR VITAE    CLOUDY    33  31  92 SW9       29.50S FOG     WCI  25
WOODRUFF       CLOUDY    33  31  92 SW9       29.50S FOG     WCI  25
RHINELANDER    CLOUDY    32  28  85 SW12      29.53S WCI  23
EAGLE RIVER    CLOUDY    32  30  94 SW9       29.50F FOG     WCI  24
LAND O LAKES   CLOUDY    32  30  94 S6        29.50F FOG     WCI  26
PHILLIPS       CLOUDY    32  29  90 SW9       29.51S WCI  24
TOMAHAWK       CLOUDY    32  28  86 SW3       29.54S
MEDFORD        CLOUDY    33  30  88 SW12G17   29.55S WCI  24
MERRILL        CLOUDY    33  30  88 SW10      29.57S WCI  25
$$

WIZ029-030-035-036-043>047-071800-
CENTRAL WISCONSIN

CITY           SKY/WX    TMP DP  RH WIND       PRES   REMARKS
WAUSAU         CLOUDY    35  29  78 SW9G20    29.56F WCI  28
MOSINEE        CLOUDY    34  30  86 SW16      29.60S WCI  23
MARSHFIELD     CLOUDY    36  27  69 W14       29.58F WCI  27
STEVENS POINT  PTSUNNY   36  28  73 W14G21    29.61S WCI  27
WAUPACA        SUNNY     43  31  62 SW12      29.62F
WAUTOMA        SUNNY     42  30  62 SW12      29.64S
WISC RAPIDS    CLOUDY    39  28  64 W14G20    29.63S WCI  31
CAMP DOUGLAS   PTSUNNY   39  34  81 W17       29.65S WCI  30
$$

WIZ011>013-019>022-031-037>040-048>050-071800-
NORTHEAST WISCONSIN

CITY           SKY/WX    TMP DP  RH WIND       PRES   REMARKS
ANTIGO         CLOUDY    33  29  86 W10       29.56S WCI  25
SHAWANO        MOSUNNY   41  31  67 SW9G17    29.61S
OCONTO         MOSUNNY   39  31  71 SW13G22   29.61S WCI  32
STURGEON BAY   MOSUNNY   37  28  70 SW13      29.63F WCI  29
GREEN BAY      SUNNY     38  30  73 SW10G18   29.62F WCI  31
MANITOWOC      SUNNY     40  30  67 SW13      29.65S WCI  32
APPLETON       MOSUNNY   39  28  65 SW12      29.61F WCI  32
CLINTONVILLE   MOSUNNY   37  30  75 SW9       29.61S WCI  31
OSHKOSH        SUNNY     38  29  70 SW8G17    29.64F WCI  32
$$

WIZ032>034-041-042-053>061-071800-
SOUTHWEST WISCONSIN

CITY           SKY/WX    TMP DP  RH WIND       PRES   REMARKS
LA CROSSE      SUNNY     40  26  57 W15G23    29.69R WCI  32
SPARTA         PTSUNNY   39  29  67 W12       29.68R WCI  32
VIROQUA        MOSUNNY   38  28  65 W16G22    29.68S WCI  29
BOSCOBEL       SUNNY     42  27  55 W10G20    29.73R
PRAIRIE DU CHI MOSUNNY   40  25  56 W9        29.74S WCI  33
PLATTEVILLE    SUNNY     38  31  74 W12G17    29.73S WCI  31
$$

WIZ056-057-062-063-064-067-068-071800-
SOUTH CENTRAL WISCONSIN

CITY           SKY/WX    TMP DP  RH WIND       PRES   REMARKS
REEDSBURG      SUNNY     39  29  69 SW13      29.67F WCI  31
BARABOO/DELLS  SUNNY     39  29  67 SW12      29.66F WCI  31
LONE ROCK      SUNNY     39  28  64 W12       29.70F WCI  32
MINERAL POINT  SUNNY     39  30  70 W13       29.70F WCI  32
MADISON        MOSUNNY   39  29  67 VRB7      29.69F WCI  34
MIDDLETON      SUNNY     42  30  63 W10       29.70S
WATERTOWN      SUNNY     39  31  72 SW12      29.69S WCI  31
MONROE         SUNNY     37  32  81 W18       29.72R WCI  27
JANESVILLE     MOSUNNY   43  30  61 SW17G23   29.72F
$$

WIZ051-052-058>065-066-070>072-071800-
SOUTHEAST WISCONSIN

CITY           SKY/WX    TMP DP  RH WIND       PRES   REMARKS
MILWAUKEE      CLOUDY    41  29  62 W16G26    29.70F
WAUKESHA       SUNNY     37  28  70 SW17      29.71F WCI  28
MILWAUKEE/TIMM MOSUNNY   39  27  60 SW16G23   29.70F WCI  30
RACINE         MOSUNNY   42  29  59 W14G29    29.72F
BURLINGTON     CLOUDY    39  29  67 SW14G22   29.72S WCI  31
KENOSHA        CLOUDY    41  30  65 SW20G29   29.72F
FOND DU LAC    SUNNY     39  30  70 SW12      29.65F WCI  32
SHEBOYGAN      SUNNY     39  29  67 SW16      29.65F WCI  30
WEST BEND      CLOUDY    37  30  75 SW13G18   29.67F WCI  29
JUNEAU         SUNNY     37  29  74 SW14G22   29.69S WCI  28
$$

LSZ147-162-071800-
LAKE SUPERIOR

STATION/POSITION TIME  TEMP    WIND        PRES    WAVE
                       AIR SEA DIR/SP/G            HT/PER
                 (UTC) (F)     (DEG/KT/KT) (MB)    (FT/S)
DEVILS ISLAND    1700   33     180/  8/  9  998.5S
PORT WING        1600   35     200/  7/ 14  998.3
SAXON HARBOR     1600   36                  998.3F
$$

LMZ867-665-643>646-071800-
LAKE MICHIGAN

STATION/POSITION TIME  TEMP    WIND        PRES    WAVE
                       AIR SEA DIR/SP/G            HT/PER
                 (UTC) (F)     (DEG/KT/KT) (MB)    (FT/S)
CHAMBERS ISLAND  1600   36     180/  5/ 11 1003.0F
NORTHPORT PIER   1600   38     170/  3/ 10 1003.4F
ALGOMA LAKESHORE 1611          220/ 11/ 13   N/A
KEWAUNEE LAKESHO 1700   40     240/  8/ 13 1002.8F
SHEBOYGAN LAKESH 1700   40     230/ 15/ 18 1004.9F
PORT WASHINGTON  1600   41     250/ 10/ 20 1006.1F
MILWAUKEE LAKESH 1710   40     250/ 15/ 19   N/A
KENOSHA   LAKESH 1700   41     250/ 16/ 25 1006.8F
$$

TC  - TEMPERATURE IN CELSIUS
VSB - VISIBILITY IN STATUTE MILES
WCI - WIND CHILL INDEX
HX  - HEAT INDEX





USA.gov is the U.S. government's official web portal to all federal, state and local government web resources and services.